TRA6676 GCTS-EHAM

Flight info

Callsign TRA6676
Flight time 3h 57m
Altitude 36000
Route KONBA UN866 BEXAL DCT TOSDI/N0456F380 N745 ZMR DCT NUBLO DCT RONSI DCT DELOG DCT DIDIG DCT USODA DCT ERCUT DCT DITAL DCT ELCOB DCT PODEM DCT BAZOS DCT LUMIL DCT BELOB UY873 DENUT
Aircraft B738/M-SDE2E3FGHIRWXY/LB1

Departure

Time 2026-05-05 13:50
Airport Tenerife Sur Airport (GCTS)

Arrival

Time 2026-05-05 17:47
Airport Amsterdam Airport Schiphol (EHAM)
Time Latitude Longitude Altitude Speed Heading
2026-05-05 13:34 28.04673 -16.57788 225 ft 0 kts 338°
2026-05-05 13:41 28.04655 -16.57781 226 ft 4 kts 338°
2026-05-05 13:41 28.04630 -16.57769 226 ft 4 kts 338°
2026-05-05 13:42 28.04609 -16.57759 226 ft 4 kts 312°
2026-05-05 13:42 28.04603 -16.57735 224 ft 4 kts 253°
2026-05-05 13:42 28.04608 -16.57718 226 ft 1 kts 248°
2026-05-05 13:42 28.04609 -16.57715 225 ft 1 kts 248°
2026-05-05 13:45 28.04606 -16.57723 226 ft 2 kts 248°
2026-05-05 13:45 28.04591 -16.57763 225 ft 10 kts 248°
2026-05-05 13:45 28.04554 -16.57867 223 ft 15 kts 247°
2026-05-05 13:45 28.04481 -16.57918 222 ft 15 kts 161°
2026-05-05 13:46 28.04413 -16.57900 222 ft 7 kts 213°
2026-05-05 13:46 28.04388 -16.57946 222 ft 8 kts 244°
2026-05-05 13:46 28.04365 -16.58009 222 ft 10 kts 249°
2026-05-05 13:46 28.04336 -16.58090 222 ft 13 kts 248°
2026-05-05 13:47 28.04293 -16.58203 222 ft 19 kts 246°
2026-05-05 13:47 28.04241 -16.58370 223 ft 24 kts 248°
2026-05-05 13:47 28.04185 -16.58540 222 ft 22 kts 256°
2026-05-05 13:47 28.04132 -16.58702 222 ft 23 kts 247°
2026-05-05 13:48 28.04070 -16.58857 210 ft 17 kts 226°
2026-05-05 13:48 28.03978 -16.58827 207 ft 18 kts 119°
2026-05-05 13:48 28.03929 -16.58744 195 ft 6 kts 134°
2026-05-05 13:48 28.03934 -16.58711 195 ft 4 kts 66°
2026-05-05 13:49 28.03941 -16.58694 199 ft 12 kts 66°
2026-05-05 13:49 28.04061 -16.58358 198 ft 81 kts 68°
2026-05-05 13:49 28.04347 -16.57541 190 ft 140 kts 68°
2026-05-05 13:49 28.04737 -16.56355 389 ft 172 kts 70°
2026-05-05 13:50 28.05165 -16.55129 1287 ft 162 kts 68°
2026-05-05 13:50 28.05570 -16.53952 2046 ft 164 kts 64°
2026-05-05 13:50 28.06031 -16.52645 2295 ft 194 kts 66°
2026-05-05 13:50 28.06561 -16.51134 2432 ft 223 kts 66°
2026-05-05 13:51 28.07153 -16.49458 2829 ft 233 kts 66°
2026-05-05 13:51 28.07773 -16.47696 3182 ft 249 kts 67°
2026-05-05 13:51 28.08466 -16.45756 3381 ft 274 kts 66°
2026-05-05 13:51 28.09166 -16.43780 4346 ft 267 kts 68°
2026-05-05 13:52 28.09811 -16.41790 5082 ft 272 kts 70°
2026-05-05 13:52 28.10446 -16.39774 5723 ft 278 kts 70°
2026-05-05 13:52 28.11104 -16.37684 6374 ft 285 kts 70°
2026-05-05 13:52 28.11787 -16.35539 6965 ft 291 kts 70°
2026-05-05 13:53 28.12480 -16.33364 7623 ft 297 kts 70°
2026-05-05 13:53 28.13196 -16.31135 8192 ft 304 kts 70°
2026-05-05 13:53 28.13922 -16.28868 8890 ft 306 kts 70°
2026-05-05 13:53 28.14656 -16.26589 9591 ft 310 kts 70°
2026-05-05 13:54 28.15408 -16.24272 10158 ft 317 kts 68°
2026-05-05 13:54 28.16648 -16.22142 10375 ft 336 kts 39°
2026-05-05 13:54 28.18718 -16.20856 10546 ft 348 kts 10°
2026-05-05 13:54 28.21147 -16.20569 10905 ft 355 kts 359°
2026-05-05 13:55 28.23640 -16.20387 11454 ft 361 kts 359°
2026-05-05 13:55 28.26160 -16.20176 12098 ft 365 kts 359°
2026-05-05 13:55 28.28705 -16.19940 12780 ft 367 kts
2026-05-05 13:55 28.31263 -16.19685 13452 ft 371 kts
2026-05-05 13:56 28.33820 -16.19420 14055 ft 376 kts 360°
2026-05-05 13:56 28.36441 -16.19141 14649 ft 380 kts 360°
2026-05-05 13:56 28.39081 -16.18856 15268 ft 383 kts 359°
2026-05-05 13:56 28.41757 -16.18564 15897 ft 387 kts 359°
2026-05-05 13:57 28.44447 -16.18270 16526 ft 391 kts 359°
2026-05-05 13:57 28.47169 -16.17973 17119 ft 395 kts 359°
2026-05-05 13:57 28.49918 -16.17672 17702 ft 399 kts 359°
2026-05-05 13:57 28.52698 -16.17368 18304 ft 403 kts 358°
2026-05-05 13:58 28.55517 -16.17060 18777 ft 410 kts 358°
2026-05-05 13:58 28.58369 -16.16748 19346 ft 413 kts 358°
2026-05-05 13:58 28.61235 -16.16432 19909 ft 415 kts 358°
2026-05-05 13:58 28.64127 -16.16114 20378 ft 420 kts 358°
2026-05-05 13:59 28.70015 -16.15469 21299 ft 429 kts 357°
2026-05-05 13:59 28.73007 -16.15140 21752 ft 434 kts 357°
2026-05-05 14:00 28.79068 -16.14472 22638 ft 442 kts 356°
2026-05-05 14:00 28.81102 -16.14248 22923 ft 445 kts 356°
2026-05-05 14:00 28.85213 -16.13794 23538 ft 450 kts 357°
2026-05-05 14:00 28.88313 -16.13447 24149 ft 446 kts 357°
2026-05-05 14:01 28.91409 -16.13104 24539 ft 449 kts 356°
2026-05-05 14:01 28.94541 -16.12747 24847 ft 456 kts 358°
2026-05-05 14:01 28.97706 -16.12040 25185 ft 469 kts
2026-05-05 14:01 29.00855 -16.10993 25580 ft 473 kts
2026-05-05 14:02 29.04012 -16.09865 25958 ft 477 kts 10°
2026-05-05 14:02 29.07181 -16.08712 26297 ft 480 kts 10°
2026-05-05 14:02 29.10376 -16.07560 26628 ft 483 kts
2026-05-05 14:02 29.13596 -16.06417 26992 ft 485 kts
2026-05-05 14:03 29.16833 -16.05284 27444 ft 485 kts
2026-05-05 14:03 29.20024 -16.04176 27834 ft 486 kts
2026-05-05 14:03 29.23273 -16.03056 28101 ft 490 kts
2026-05-05 14:03 29.26549 -16.01931 28370 ft 494 kts
2026-05-05 14:04 29.29851 -16.00795 28666 ft 497 kts
2026-05-05 14:04 29.33166 -15.99653 28972 ft 499 kts
2026-05-05 14:04 29.36503 -15.98501 29224 ft 503 kts
2026-05-05 14:04 29.39867 -15.97339 29464 ft 506 kts
2026-05-05 14:05 29.43264 -15.96164 29803 ft 508 kts
2026-05-05 14:05 29.46601 -15.94946 30533 ft 501 kts 12°
2026-05-05 14:05 29.49920 -15.93696 30654 ft 504 kts
2026-05-05 14:05 29.53264 -15.92560 30703 ft 509 kts
2026-05-05 14:06 29.56685 -15.91437 30895 ft 512 kts
2026-05-05 14:06 29.60102 -15.90298 31200 ft 512 kts
2026-05-05 14:06 29.63517 -15.89135 31552 ft 510 kts
2026-05-05 14:06 29.66913 -15.87960 31919 ft 509 kts
2026-05-05 14:07 29.70308 -15.86777 32210 ft 509 kts
2026-05-05 14:07 29.73705 -15.85590 32472 ft 510 kts
2026-05-05 14:07 29.77100 -15.84404 32744 ft 510 kts
2026-05-05 14:07 29.80494 -15.83218 33041 ft 510 kts
2026-05-05 14:08 29.83886 -15.82033 33333 ft 509 kts
2026-05-05 14:08 29.87276 -15.80849 33596 ft 509 kts
2026-05-05 14:08 29.90664 -15.79665 33870 ft 509 kts
2026-05-05 14:08 29.94058 -15.78478 34135 ft 509 kts
2026-05-05 14:09 29.97404 -15.77307 34372 ft 509 kts
2026-05-05 14:09 30.00785 -15.76123 34679 ft 506 kts
2026-05-05 14:09 30.04121 -15.75037 35355 ft 494 kts 10°
2026-05-05 14:09 30.07392 -15.73798 35582 ft 495 kts
2026-05-05 14:10 30.14010 -15.71443 35734 ft 500 kts
2026-05-05 14:10 30.17348 -15.70286 35860 ft 502 kts
2026-05-05 14:10 30.20695 -15.69124 36053 ft 502 kts
2026-05-05 14:11 30.27420 -15.66776 36084 ft 506 kts
2026-05-05 14:11 30.34137 -15.64407 36082 ft 501 kts
2026-05-05 14:12 30.40750 -15.62063 36082 ft 495 kts
2026-05-05 14:12 30.47292 -15.59753 36089 ft 494 kts
2026-05-05 14:13 30.53876 -15.57426 36089 ft 494 kts
2026-05-05 14:13 30.60461 -15.55094 36111 ft 495 kts
2026-05-05 14:14 30.67051 -15.52755 36090 ft 495 kts
2026-05-05 14:14 30.73650 -15.50409 36085 ft 495 kts
2026-05-05 14:15 30.80235 -15.48064 36093 ft 495 kts
2026-05-05 14:15 30.86776 -15.45732 36136 ft 494 kts
2026-05-05 14:16 30.93291 -15.43257 36079 ft 487 kts 10°
2026-05-05 14:16 30.99737 -15.41047 36095 ft 482 kts 10°
2026-05-05 14:17 31.06174 -15.38799 36099 ft 482 kts 10°
2026-05-05 14:17 31.12590 -15.36503 36098 ft 482 kts 11°
2026-05-05 14:18 31.19003 -15.34210 36082 ft 484 kts 14°
2026-05-05 14:18 31.25369 -15.31905 36088 ft 481 kts 10°
2026-05-05 14:19 31.31692 -15.29115 36098 ft 489 kts 26°
2026-05-05 14:19 31.37365 -15.24769 36094 ft 491 kts 30°
2026-05-05 14:20 31.43016 -15.20259 36103 ft 491 kts 30°
2026-05-05 14:20 31.48667 -15.15794 36104 ft 489 kts 31°
2026-05-05 14:21 31.54306 -15.11354 36097 ft 486 kts 30°
2026-05-05 14:21 31.59934 -15.06998 36106 ft 482 kts 30°
2026-05-05 14:22 31.65492 -15.02683 36099 ft 480 kts 30°
2026-05-05 14:22 31.71040 -14.98352 36097 ft 478 kts 30°
2026-05-05 14:23 31.75671 -14.94727 36124 ft 476 kts 31°
2026-05-05 14:23 31.81141 -14.90439 36105 ft 474 kts 30°
2026-05-05 14:24 31.86626 -14.86133 36110 ft 473 kts 30°
2026-05-05 14:24 31.92102 -14.81829 36117 ft 474 kts 31°
2026-05-05 14:25 31.97586 -14.77513 36123 ft 474 kts 31°
2026-05-05 14:25 32.03073 -14.73187 36132 ft 474 kts 31°
2026-05-05 14:26 32.08526 -14.68881 36127 ft 474 kts 31°
2026-05-05 14:26 32.14006 -14.64548 36117 ft 473 kts 31°
2026-05-05 14:27 32.19471 -14.60220 36118 ft 472 kts 31°
2026-05-05 14:27 32.24924 -14.55896 36121 ft 472 kts 31°
2026-05-05 14:28 32.30341 -14.51594 36125 ft 472 kts 31°
2026-05-05 14:28 32.35783 -14.47266 36131 ft 471 kts 31°
2026-05-05 14:29 32.41220 -14.42935 36127 ft 471 kts 31°
2026-05-05 14:29 32.46656 -14.38600 36121 ft 471 kts 31°
2026-05-05 14:30 32.52080 -14.34266 36130 ft 470 kts 31°
2026-05-05 14:30 32.57496 -14.29932 36141 ft 469 kts 31°
2026-05-05 14:31 32.62903 -14.25601 36133 ft 469 kts 31°
2026-05-05 14:31 32.68279 -14.21286 36149 ft 469 kts 31°
2026-05-05 14:32 32.73691 -14.16938 36144 ft 469 kts 31°
2026-05-05 14:32 32.79098 -14.12586 36136 ft 470 kts 31°
2026-05-05 14:33 32.84512 -14.08222 36133 ft 470 kts 31°
2026-05-05 14:33 32.89936 -14.03843 36152 ft 471 kts 32°
2026-05-05 14:34 32.95362 -13.99456 36134 ft 471 kts 32°
2026-05-05 14:34 33.00786 -13.95063 36145 ft 472 kts 32°
2026-05-05 14:35 33.06214 -13.90661 36139 ft 472 kts 32°
2026-05-05 14:35 33.11640 -13.86254 36144 ft 472 kts 32°
2026-05-05 14:36 33.17033 -13.81864 36136 ft 472 kts 32°
2026-05-05 14:36 33.22448 -13.77433 36143 ft 472 kts 32°
2026-05-05 14:37 33.27865 -13.72987 36136 ft 471 kts 32°
2026-05-05 14:37 33.33259 -13.68554 36161 ft 471 kts 32°
2026-05-05 14:38 33.38669 -13.64104 36132 ft 472 kts 32°
2026-05-05 14:38 33.44075 -13.59649 36130 ft 471 kts 32°
2026-05-05 14:39 33.49458 -13.55207 36142 ft 468 kts 32°
2026-05-05 14:39 33.54777 -13.50810 36130 ft 466 kts 32°
2026-05-05 14:40 33.60105 -13.46399 36148 ft 464 kts 32°
2026-05-05 14:40 33.65421 -13.41993 36135 ft 463 kts 32°
2026-05-05 14:41 33.70716 -13.37597 36135 ft 462 kts 32°
2026-05-05 14:41 33.75996 -13.33206 36151 ft 461 kts 32°
2026-05-05 14:42 33.81277 -13.28808 36143 ft 462 kts 32°
2026-05-05 14:42 33.86565 -13.24398 36143 ft 463 kts 32°
2026-05-05 14:43 33.91832 -13.19999 36143 ft 464 kts 32°
2026-05-05 14:43 33.97147 -13.15552 36143 ft 466 kts 32°
2026-05-05 14:44 34.02485 -13.11078 36145 ft 467 kts 32°
2026-05-05 14:44 34.07832 -13.06590 36150 ft 469 kts 32°
2026-05-05 14:45 34.13192 -13.02084 36145 ft 470 kts 32°
2026-05-05 14:45 34.18559 -12.97564 36144 ft 470 kts 32°
2026-05-05 14:46 34.23934 -12.93031 36143 ft 470 kts 32°
2026-05-05 14:46 34.29303 -12.88510 36144 ft 470 kts 32°
2026-05-05 14:47 34.34651 -12.84035 36146 ft 470 kts 32°
2026-05-05 14:47 34.40030 -12.79531 36149 ft 469 kts 32°
2026-05-05 14:48 34.45392 -12.75028 36144 ft 469 kts 32°
2026-05-05 14:48 34.50745 -12.70523 36148 ft 468 kts 32°
2026-05-05 14:49 34.56095 -12.66013 36145 ft 468 kts 32°
2026-05-05 14:49 34.61442 -12.61498 36155 ft 468 kts 32°
2026-05-05 14:50 34.66784 -12.56980 36148 ft 468 kts 32°
2026-05-05 14:50 34.72123 -12.52458 36147 ft 468 kts 32°
2026-05-05 14:51 34.77469 -12.47922 36148 ft 468 kts 32°
2026-05-05 14:51 34.82814 -12.43379 36147 ft 468 kts 32°
2026-05-05 14:52 34.88128 -12.38856 36157 ft 469 kts 32°
2026-05-05 14:52 34.93486 -12.34289 36150 ft 470 kts 32°
2026-05-05 14:53 34.98852 -12.29707 36144 ft 471 kts 32°
2026-05-05 14:53 35.04218 -12.25117 36151 ft 471 kts 32°
2026-05-05 14:54 35.09593 -12.20512 36150 ft 472 kts 32°
2026-05-05 14:54 35.14970 -12.15897 36162 ft 473 kts 32°
2026-05-05 14:55 35.20360 -12.11264 36151 ft 473 kts 32°
2026-05-05 14:55 35.25752 -12.06622 36149 ft 474 kts 32°
2026-05-05 14:56 35.31108 -12.02003 36144 ft 474 kts 32°
2026-05-05 14:56 35.36496 -11.97348 36148 ft 474 kts 32°
2026-05-05 14:57 35.41890 -11.92681 36146 ft 474 kts 32°
2026-05-05 14:57 35.47278 -11.88011 36148 ft 474 kts 32°
2026-05-05 14:58 35.52670 -11.83329 36147 ft 474 kts 32°
2026-05-05 14:58 35.58052 -11.78649 36146 ft 474 kts 32°
2026-05-05 14:59 35.63399 -11.73991 36144 ft 474 kts 32°
2026-05-05 14:59 35.68782 -11.69293 36154 ft 474 kts 32°
2026-05-05 15:00 35.73286 -11.65357 36144 ft 474 kts 32°
2026-05-05 15:00 35.79548 -11.59875 36149 ft 474 kts 32°
2026-05-05 15:01 35.84921 -11.55162 36145 ft 474 kts 32°
2026-05-05 15:01 35.90272 -11.50461 36146 ft 474 kts 32°
2026-05-05 15:02 35.95649 -11.45729 36165 ft 474 kts 32°
2026-05-05 15:02 36.00974 -11.40895 36152 ft 476 kts 34°
2026-05-05 15:03 36.06235 -11.35911 36140 ft 476 kts 34°
2026-05-05 15:03 36.11484 -11.30919 36143 ft 476 kts 34°
2026-05-05 15:04 36.16712 -11.25967 36146 ft 476 kts 34°
2026-05-05 15:04 36.21982 -11.20982 36148 ft 476 kts 34°
2026-05-05 15:05 36.29888 -11.13495 36146 ft 477 kts 34°
2026-05-05 15:06 36.35156 -11.08493 36145 ft 477 kts 34°
2026-05-05 15:06 36.40417 -11.03490 36141 ft 476 kts 34°
2026-05-05 15:07 36.45648 -10.98506 36147 ft 476 kts 34°
2026-05-05 15:07 36.50903 -10.93489 36162 ft 476 kts 34°
2026-05-05 15:08 36.56152 -10.88471 36145 ft 476 kts 34°
2026-05-05 15:08 36.61399 -10.83445 36140 ft 475 kts 34°
2026-05-05 15:09 36.66645 -10.78411 36138 ft 475 kts 34°
2026-05-05 15:09 36.71874 -10.73385 36142 ft 474 kts 34°
2026-05-05 15:10 36.77100 -10.68352 36146 ft 474 kts 34°
2026-05-05 15:10 36.82289 -10.63348 36136 ft 474 kts 34°
2026-05-05 15:11 36.87505 -10.58307 36138 ft 474 kts 34°
2026-05-05 15:11 36.92727 -10.53252 36136 ft 474 kts 34°
2026-05-05 15:12 36.97946 -10.48190 36135 ft 474 kts 34°
2026-05-05 15:12 37.02275 -10.43985 36158 ft 475 kts 34°
2026-05-05 15:13 37.08383 -10.38042 36135 ft 475 kts 34°
2026-05-05 15:13 37.12729 -10.33806 36131 ft 476 kts 34°
2026-05-05 15:14 37.17958 -10.28700 36134 ft 476 kts 34°
2026-05-05 15:14 37.23182 -10.23589 36128 ft 476 kts 34°
2026-05-05 15:15 37.28410 -10.18466 36147 ft 477 kts 34°
2026-05-05 15:15 37.33634 -10.13337 36124 ft 477 kts 34°
2026-05-05 15:16 37.38835 -10.08222 36125 ft 478 kts 34°
2026-05-05 15:16 37.44074 -10.03061 36123 ft 478 kts 34°
2026-05-05 15:17 37.49309 -9.97892 36119 ft 478 kts 34°
2026-05-05 15:17 37.54545 -9.92714 36133 ft 479 kts 34°
2026-05-05 15:18 37.59795 -9.87513 36124 ft 479 kts 34°
2026-05-05 15:18 37.65010 -9.82336 36115 ft 480 kts 34°
2026-05-05 15:19 37.70263 -9.77113 36115 ft 480 kts 34°
2026-05-05 15:19 37.75515 -9.71880 36115 ft 481 kts 34°
2026-05-05 15:20 37.80763 -9.66642 36125 ft 481 kts 34°
2026-05-05 15:20 37.86024 -9.61381 36112 ft 481 kts 34°
2026-05-05 15:21 37.91283 -9.56112 36110 ft 482 kts 34°
2026-05-05 15:21 37.96537 -9.50838 36107 ft 482 kts 34°
2026-05-05 15:22 38.01765 -9.45581 36109 ft 482 kts 34°
2026-05-05 15:22 38.07016 -9.40290 36102 ft 482 kts 34°
2026-05-05 15:23 38.12265 -9.34991 36096 ft 482 kts 34°
2026-05-05 15:23 38.17513 -9.29684 36096 ft 482 kts 34°
2026-05-05 15:24 38.22760 -9.24368 36096 ft 482 kts 34°
2026-05-05 15:24 38.28018 -9.19029 36090 ft 482 kts 34°
2026-05-05 15:25 38.33220 -9.13738 36093 ft 482 kts 34°
2026-05-05 15:25 38.38467 -9.08392 36081 ft 482 kts 34°
2026-05-05 15:26 38.43702 -9.03046 36078 ft 482 kts 34°
2026-05-05 15:26 38.48933 -8.97693 36073 ft 481 kts 34°
2026-05-05 15:27 38.54153 -8.92343 36059 ft 481 kts 34°
2026-05-05 15:27 38.59376 -8.86980 36072 ft 481 kts 33°
2026-05-05 15:28 38.64564 -8.81644 36069 ft 481 kts 34°
2026-05-05 15:28 38.69782 -8.76265 36065 ft 481 kts 34°
2026-05-05 15:29 38.74992 -8.70884 36074 ft 481 kts 33°
2026-05-05 15:29 38.80202 -8.65492 36078 ft 481 kts 33°
2026-05-05 15:30 38.85419 -8.60084 36058 ft 482 kts 33°
2026-05-05 15:30 38.90628 -8.54672 36049 ft 482 kts 33°
2026-05-05 15:31 38.95842 -8.49245 36050 ft 482 kts 33°
2026-05-05 15:31 39.01020 -8.43844 36044 ft 482 kts 33°
2026-05-05 15:32 39.06229 -8.38401 36079 ft 482 kts 34°
2026-05-05 15:32 39.11444 -8.32941 36046 ft 482 kts 34°
2026-05-05 15:33 39.16650 -8.27479 36030 ft 482 kts 34°
2026-05-05 15:33 39.21844 -8.22019 36034 ft 481 kts 34°
2026-05-05 15:34 39.27025 -8.16562 36028 ft 480 kts 34°
2026-05-05 15:34 39.32169 -8.11134 36042 ft 479 kts 34°
2026-05-05 15:35 39.37336 -8.05671 36028 ft 478 kts 34°
2026-05-05 15:35 39.42452 -8.00250 36021 ft 477 kts 34°
2026-05-05 15:36 39.47575 -7.94812 36025 ft 476 kts 34°
2026-05-05 15:36 39.52692 -7.89370 36008 ft 475 kts 34°
2026-05-05 15:37 39.57791 -7.83935 36012 ft 475 kts 34°
2026-05-05 15:37 39.62895 -7.78486 36006 ft 474 kts 34°
2026-05-05 15:38 39.67983 -7.73042 36006 ft 474 kts 34°
2026-05-05 15:38 39.73034 -7.67627 36009 ft 473 kts 34°
2026-05-05 15:39 39.78112 -7.62173 36038 ft 473 kts 34°
2026-05-05 15:39 39.83196 -7.56703 36010 ft 475 kts 34°
2026-05-05 15:40 39.88293 -7.51205 36007 ft 475 kts 34°
2026-05-05 15:40 39.93377 -7.45711 36005 ft 475 kts 34°
2026-05-05 15:41 39.98469 -7.40198 35997 ft 475 kts 34°
2026-05-05 15:41 40.03521 -7.34717 36022 ft 475 kts 34°
2026-05-05 15:42 40.08603 -7.29192 35996 ft 475 kts 34°
2026-05-05 15:42 40.13672 -7.23670 35983 ft 474 kts 35°
2026-05-05 15:43 40.18729 -7.18150 35991 ft 473 kts 34°
2026-05-05 15:43 40.23778 -7.12629 35988 ft 472 kts 34°
2026-05-05 15:44 40.28785 -7.07143 35997 ft 472 kts 34°
2026-05-05 15:44 40.33816 -7.01618 35985 ft 471 kts 34°
2026-05-05 15:45 40.38824 -6.96108 35979 ft 469 kts 34°
2026-05-05 15:45 40.43817 -6.90602 35979 ft 468 kts 34°
2026-05-05 15:46 40.48795 -6.85103 35981 ft 466 kts 34°
2026-05-05 15:46 40.53722 -6.79650 35984 ft 465 kts 34°
2026-05-05 15:47 40.58667 -6.74166 35988 ft 465 kts 34°
2026-05-05 15:47 40.63621 -6.68663 36039 ft 468 kts 34°
2026-05-05 15:47 40.66105 -6.65899 36259 ft 468 kts 34°
2026-05-05 15:48 40.68590 -6.63130 36536 ft 467 kts 34°
2026-05-05 15:48 40.71065 -6.60367 36830 ft 465 kts 34°
2026-05-05 15:48 40.73529 -6.57615 37083 ft 465 kts 34°
2026-05-05 15:49 40.78513 -6.52047 37252 ft 471 kts 34°
2026-05-05 15:49 40.80982 -6.49284 37367 ft 472 kts 34°
2026-05-05 15:49 40.83489 -6.46473 37598 ft 472 kts 34°
2026-05-05 15:49 40.85991 -6.43663 37816 ft 472 kts 35°
2026-05-05 15:50 40.88489 -6.40855 37975 ft 472 kts 35°
2026-05-05 15:50 40.93516 -6.35199 37986 ft 475 kts 35°
2026-05-05 15:51 40.98530 -6.29546 37992 ft 472 kts 35°
2026-05-05 15:51 41.03460 -6.23806 37983 ft 471 kts 37°
2026-05-05 15:52 41.08307 -6.17970 37977 ft 469 kts 37°
2026-05-05 15:52 41.13136 -6.12154 37987 ft 468 kts 37°
2026-05-05 15:53 41.17962 -6.06361 37985 ft 468 kts 37°
2026-05-05 15:53 41.22760 -6.00602 37979 ft 469 kts 37°
2026-05-05 15:54 41.27599 -5.94779 37982 ft 469 kts 37°
2026-05-05 15:54 41.32441 -5.88939 37981 ft 470 kts 37°
2026-05-05 15:55 41.37293 -5.83074 37972 ft 471 kts 38°
2026-05-05 15:55 41.42156 -5.77183 37992 ft 473 kts 38°
2026-05-05 15:56 41.47023 -5.71276 37981 ft 474 kts 38°
2026-05-05 15:56 41.51944 -5.65429 37971 ft 472 kts 32°
2026-05-05 15:57 41.57552 -5.61233 37984 ft 461 kts 18°
2026-05-05 15:57 41.63502 -5.57969 37976 ft 462 kts 17°
2026-05-05 15:58 41.69455 -5.54701 37974 ft 463 kts 18°
2026-05-05 15:58 41.75402 -5.51368 37972 ft 463 kts 18°
2026-05-05 15:59 41.81333 -5.48007 37977 ft 462 kts 19°
2026-05-05 15:59 41.87216 -5.44662 37997 ft 462 kts 19°
2026-05-05 16:00 41.93135 -5.41291 37978 ft 462 kts 19°
2026-05-05 16:00 41.99052 -5.37917 37992 ft 461 kts 19°
2026-05-05 16:01 42.03968 -5.35108 37984 ft 461 kts 19°
2026-05-05 16:01 42.09871 -5.31729 37995 ft 461 kts 19°
2026-05-05 16:02 42.15778 -5.28341 37994 ft 461 kts 19°
2026-05-05 16:02 42.21697 -5.24940 37981 ft 462 kts 19°
2026-05-05 16:03 42.27609 -5.21535 37985 ft 461 kts 19°
2026-05-05 16:03 42.33514 -5.18127 37989 ft 462 kts 19°
2026-05-05 16:04 42.39426 -5.14708 37981 ft 462 kts 19°
2026-05-05 16:04 42.45338 -5.11283 37985 ft 462 kts 19°
2026-05-05 16:05 42.51255 -5.07847 38008 ft 463 kts 20°
2026-05-05 16:05 42.57176 -5.04401 37994 ft 463 kts 20°
2026-05-05 16:06 42.63065 -5.00966 37992 ft 463 kts 20°
2026-05-05 16:06 42.69001 -4.97499 37983 ft 463 kts 20°
2026-05-05 16:07 42.74896 -4.94049 37980 ft 464 kts 20°
2026-05-05 16:07 42.80822 -4.90573 37992 ft 464 kts 20°
2026-05-05 16:08 42.86752 -4.87087 37991 ft 463 kts 20°
2026-05-05 16:08 42.92677 -4.83596 38002 ft 464 kts 20°
2026-05-05 16:09 42.98611 -4.80093 38000 ft 464 kts 20°
2026-05-05 16:09 43.04549 -4.76580 37996 ft 465 kts 20°
2026-05-05 16:10 43.10454 -4.73079 38012 ft 465 kts 20°
2026-05-05 16:10 43.16387 -4.69554 38009 ft 465 kts 20°
2026-05-05 16:11 43.22317 -4.66023 37998 ft 463 kts 20°
2026-05-05 16:12 43.34115 -4.58976 38036 ft 462 kts 20°
2026-05-05 16:13 43.48800 -4.50162 38019 ft 461 kts 21°
2026-05-05 16:13 43.54683 -4.46621 38038 ft 461 kts 21°
2026-05-05 16:14 43.66456 -4.39513 38008 ft 462 kts 21°
2026-05-05 16:15 43.78233 -4.32371 38008 ft 462 kts 21°
2026-05-05 16:16 43.90005 -4.25199 38000 ft 462 kts 21°
2026-05-05 16:17 43.98794 -4.19825 37998 ft 462 kts 21°
2026-05-05 16:18 44.07611 -4.14416 37991 ft 462 kts 22°
2026-05-05 16:19 44.16429 -4.08989 37993 ft 461 kts 22°
2026-05-05 16:19 44.25236 -4.03549 37977 ft 461 kts 22°
2026-05-05 16:20 44.36631 -3.95468 37996 ft 462 kts 33°
2026-05-05 16:22 44.49751 -3.82392 37978 ft 463 kts 34°
2026-05-05 16:23 44.60303 -3.72025 37978 ft 463 kts 33°
2026-05-05 16:23 44.68222 -3.64235 37965 ft 464 kts 34°
2026-05-05 16:24 44.73473 -3.59052 37964 ft 464 kts 34°
2026-05-05 16:25 44.81400 -3.51202 37964 ft 464 kts 33°
2026-05-05 16:25 44.89165 -3.43489 37963 ft 465 kts 34°
2026-05-05 16:26 44.99741 -3.32942 37959 ft 466 kts 34°
2026-05-05 16:27 45.05036 -3.27641 37954 ft 467 kts 34°
2026-05-05 16:27 45.10342 -3.22318 37953 ft 467 kts 34°
2026-05-05 16:28 45.15655 -3.16975 37957 ft 468 kts 34°
2026-05-05 16:28 45.20927 -3.11661 37950 ft 468 kts 34°
2026-05-05 16:29 45.26232 -3.06304 37937 ft 468 kts 34°
2026-05-05 16:29 45.31534 -3.00935 37943 ft 468 kts 34°
2026-05-05 16:30 45.36833 -2.95555 37954 ft 468 kts 34°
2026-05-05 16:30 45.42133 -2.90163 37942 ft 468 kts 34°
2026-05-05 16:31 45.47218 -2.84978 37940 ft 468 kts 34°
2026-05-05 16:31 45.52514 -2.79565 37932 ft 468 kts 34°
2026-05-05 16:32 45.57803 -2.74146 37939 ft 467 kts 35°
2026-05-05 16:32 45.63076 -2.68731 37918 ft 467 kts 35°
2026-05-05 16:33 45.68345 -2.63307 37915 ft 466 kts 35°
2026-05-05 16:33 45.73605 -2.57879 37921 ft 466 kts 35°
2026-05-05 16:34 45.78830 -2.52476 37927 ft 466 kts 36°
2026-05-05 16:34 45.84075 -2.47038 37914 ft 465 kts 36°
2026-05-05 16:35 45.89318 -2.41588 37919 ft 465 kts 35°
2026-05-05 16:35 45.94563 -2.36125 37910 ft 465 kts 36°
2026-05-05 16:36 45.99759 -2.30696 37914 ft 464 kts 36°
2026-05-05 16:36 46.04995 -2.25216 37909 ft 465 kts 36°
2026-05-05 16:37 46.10341 -2.19963 37911 ft 465 kts 32°
2026-05-05 16:37 46.15785 -2.14916 37902 ft 465 kts 32°
2026-05-05 16:38 46.21224 -2.09860 37902 ft 465 kts 33°
2026-05-05 16:38 46.26634 -2.04741 37901 ft 465 kts 33°
2026-05-05 16:39 46.32034 -1.99581 37890 ft 465 kts 33°
2026-05-05 16:39 46.37406 -1.94441 37902 ft 465 kts 33°
2026-05-05 16:40 46.42810 -1.89267 37890 ft 465 kts 33°
2026-05-05 16:40 46.48212 -1.84085 37891 ft 465 kts 33°
2026-05-05 16:41 46.53608 -1.78896 37893 ft 465 kts 33°
2026-05-05 16:41 46.59006 -1.73694 37894 ft 465 kts 34°
2026-05-05 16:42 46.64368 -1.68512 37886 ft 465 kts 34°
2026-05-05 16:42 46.69763 -1.63284 37887 ft 465 kts 34°
2026-05-05 16:43 46.75143 -1.58058 37876 ft 465 kts 34°
2026-05-05 16:43 46.80523 -1.52821 37884 ft 465 kts 34°
2026-05-05 16:44 46.85906 -1.47567 37880 ft 465 kts 34°
2026-05-05 16:44 46.91280 -1.42310 37882 ft 465 kts 34°
2026-05-05 16:45 46.96606 -1.37007 37882 ft 465 kts 38°
2026-05-05 16:45 46.99007 -1.33842 37877 ft 464 kts 49°
2026-05-05 16:45 47.01165 -1.30332 37889 ft 464 kts 49°
2026-05-05 16:46 47.05426 -1.23197 37876 ft 465 kts 50°
2026-05-05 16:46 47.09703 -1.16081 37874 ft 464 kts 49°
2026-05-05 16:47 47.14008 -1.08988 37883 ft 464 kts 49°
2026-05-05 16:47 47.18308 -1.01911 37888 ft 464 kts 49°
2026-05-05 16:48 47.22573 -0.94878 37872 ft 463 kts 50°
2026-05-05 16:48 47.26852 -0.87789 37872 ft 462 kts 49°
2026-05-05 16:49 47.31123 -0.80696 37860 ft 462 kts 49°
2026-05-05 16:49 47.35378 -0.73613 37869 ft 461 kts 49°
2026-05-05 16:50 47.38912 -0.67717 37878 ft 461 kts 50°
2026-05-05 16:50 47.43876 -0.59510 37873 ft 461 kts 45°
2026-05-05 16:51 47.48010 -0.54545 37890 ft 462 kts 37°
2026-05-05 16:51 47.53210 -0.48932 37872 ft 463 kts 37°
2026-05-05 16:52 47.58406 -0.43296 37888 ft 462 kts 37°
2026-05-05 16:52 47.63573 -0.37607 37891 ft 462 kts 38°
2026-05-05 16:53 47.68694 -0.31921 37881 ft 462 kts 38°
2026-05-05 16:53 47.73846 -0.26181 37882 ft 463 kts 38°
2026-05-05 16:54 47.78992 -0.20436 37880 ft 462 kts 38°
2026-05-05 16:54 47.84130 -0.14686 37891 ft 462 kts 38°
2026-05-05 16:55 47.89272 -0.08918 37892 ft 462 kts 38°
2026-05-05 16:55 47.94418 -0.03131 37888 ft 463 kts 38°
2026-05-05 16:56 47.99559 0.02666 37876 ft 463 kts 38°
2026-05-05 16:56 48.04699 0.08477 37875 ft 463 kts 38°
2026-05-05 16:57 48.09822 0.14283 37880 ft 461 kts 38°
2026-05-05 16:57 48.14928 0.20084 37881 ft 460 kts 38°
2026-05-05 16:58 48.20025 0.25890 37884 ft 460 kts 38°
2026-05-05 16:58 48.25108 0.31696 37882 ft 459 kts 38°
2026-05-05 16:59 48.30159 0.37479 37877 ft 459 kts 39°
2026-05-05 16:59 48.35241 0.43313 37869 ft 459 kts 39°
2026-05-05 17:00 48.40321 0.49160 37889 ft 460 kts 39°
2026-05-05 17:00 48.45422 0.55046 37887 ft 462 kts 39°
2026-05-05 17:01 48.50532 0.60958 37871 ft 463 kts 39°
2026-05-05 17:01 48.55639 0.66882 37871 ft 462 kts 39°
2026-05-05 17:02 48.60710 0.72779 37864 ft 462 kts 39°
2026-05-05 17:02 48.65798 0.78713 37867 ft 462 kts 39°
2026-05-05 17:03 48.70893 0.84670 37868 ft 462 kts 39°
2026-05-05 17:03 48.75980 0.90621 37856 ft 461 kts 39°
2026-05-05 17:04 48.81057 0.96464 37858 ft 460 kts 38°
2026-05-05 17:04 48.86152 1.02320 37860 ft 460 kts 38°
2026-05-05 17:05 48.91241 1.08200 37854 ft 459 kts 38°
2026-05-05 17:05 48.96320 1.14092 37859 ft 459 kts 39°
2026-05-05 17:06 49.01402 1.20001 37863 ft 460 kts 39°
2026-05-05 17:06 49.06308 1.26277 37855 ft 460 kts 45°
2026-05-05 17:07 49.10899 1.33067 37848 ft 459 kts 46°
2026-05-05 17:07 49.15465 1.39816 37848 ft 460 kts 45°
2026-05-05 17:08 49.20097 1.46559 37851 ft 460 kts 45°
2026-05-05 17:08 49.24741 1.53312 37843 ft 461 kts 45°
2026-05-05 17:09 49.29382 1.60077 37844 ft 460 kts 45°
2026-05-05 17:09 49.34022 1.66839 37844 ft 459 kts 45°
2026-05-05 17:10 49.38651 1.73605 37848 ft 459 kts 45°
2026-05-05 17:10 49.43276 1.80390 37838 ft 459 kts 45°
2026-05-05 17:11 49.47893 1.87178 37859 ft 460 kts 45°
2026-05-05 17:11 49.52581 1.93900 37846 ft 462 kts 40°
2026-05-05 17:12 49.57716 1.99796 37852 ft 463 kts 37°
2026-05-05 17:12 49.62963 2.05552 37860 ft 463 kts 37°
2026-05-05 17:13 49.68189 2.11381 37867 ft 464 kts 37°
2026-05-05 17:13 49.73404 2.17294 37845 ft 466 kts 38°
2026-05-05 17:14 49.78589 2.23214 37856 ft 465 kts 38°
2026-05-05 17:14 49.83796 2.29175 37860 ft 466 kts 38°
2026-05-05 17:15 49.89013 2.35162 37855 ft 467 kts 38°
2026-05-05 17:15 49.94229 2.41161 37856 ft 466 kts 38°
2026-05-05 17:16 49.99441 2.47173 37854 ft 465 kts 38°
2026-05-05 17:16 50.04629 2.53174 37857 ft 464 kts 38°
2026-05-05 17:17 50.09802 2.59172 37857 ft 463 kts 38°
2026-05-05 17:17 50.14926 2.65132 37853 ft 462 kts 38°
2026-05-05 17:18 50.20073 2.71136 37847 ft 462 kts 38°
2026-05-05 17:18 50.25227 2.77164 37854 ft 462 kts 38°
2026-05-05 17:19 50.30381 2.83208 37859 ft 463 kts 38°
2026-05-05 17:19 50.35540 2.89276 37856 ft 465 kts 38°
2026-05-05 17:20 50.38126 2.92323 37719 ft 467 kts 38°
2026-05-05 17:20 50.40753 2.95422 37162 ft 472 kts 38°
2026-05-05 17:20 50.43409 2.98295 36631 ft 469 kts 32°
2026-05-05 17:20 50.46248 3.00781 36137 ft 466 kts 29°
2026-05-05 17:21 50.49117 3.03125 35647 ft 463 kts 29°
2026-05-05 17:21 50.51979 3.05435 35082 ft 461 kts 29°
2026-05-05 17:21 50.54823 3.07763 34514 ft 460 kts 30°
2026-05-05 17:22 50.60419 3.12458 33572 ft 452 kts 31°
2026-05-05 17:22 50.63203 3.14828 32673 ft 457 kts 31°
2026-05-05 17:22 50.66013 3.17228 31789 ft 461 kts 31°
2026-05-05 17:22 50.68831 3.19634 31211 ft 459 kts 30°
2026-05-05 17:23 50.71623 3.22013 30788 ft 452 kts 30°
2026-05-05 17:23 50.74384 3.24331 30343 ft 447 kts 30°
2026-05-05 17:23 50.77139 3.26625 29568 ft 449 kts 30°
2026-05-05 17:23 50.79893 3.28912 28968 ft 445 kts 30°
2026-05-05 17:24 50.82619 3.31179 28420 ft 440 kts 30°
2026-05-05 17:24 50.85321 3.33432 27907 ft 436 kts 29°
2026-05-05 17:24 50.87989 3.35663 27392 ft 432 kts 29°
2026-05-05 17:24 50.90597 3.37852 26880 ft 429 kts 29°
2026-05-05 17:25 50.93229 3.40065 26374 ft 426 kts 29°
2026-05-05 17:25 50.94992 3.41548 26040 ft 424 kts 29°
2026-05-05 17:25 50.98431 3.44446 25371 ft 420 kts 29°
2026-05-05 17:25 51.01007 3.46619 24877 ft 418 kts 29°
2026-05-05 17:26 51.03564 3.48780 24394 ft 415 kts 28°
2026-05-05 17:26 51.06115 3.50937 23900 ft 414 kts 28°
2026-05-05 17:26 51.08656 3.53089 23394 ft 412 kts 28°
2026-05-05 17:26 51.11182 3.55231 22780 ft 411 kts 28°
2026-05-05 17:27 51.13695 3.57363 22300 ft 407 kts 28°
2026-05-05 17:27 51.16187 3.59481 21777 ft 404 kts 28°
2026-05-05 17:27 51.18657 3.61583 21285 ft 401 kts 28°
2026-05-05 17:27 51.21109 3.63671 20788 ft 397 kts 29°
2026-05-05 17:28 51.23590 3.65438 20284 ft 395 kts 15°
2026-05-05 17:28 51.26298 3.65896 19857 ft 390 kts
2026-05-05 17:28 51.29010 3.65802 19376 ft 387 kts 359°
2026-05-05 17:28 51.31695 3.65667 18894 ft 384 kts 359°
2026-05-05 17:29 51.34356 3.65533 18415 ft 381 kts 359°
2026-05-05 17:29 51.36995 3.65413 17909 ft 378 kts 359°
2026-05-05 17:29 51.39610 3.65311 17383 ft 374 kts
2026-05-05 17:29 51.42198 3.65217 16897 ft 370 kts
2026-05-05 17:30 51.44754 3.65253 16398 ft 365 kts
2026-05-05 17:30 51.47193 3.66236 15895 ft 360 kts 22°
2026-05-05 17:30 51.49422 3.67994 15448 ft 353 kts 33°
2026-05-05 17:30 51.51463 3.70157 14948 ft 351 kts 35°
2026-05-05 17:31 51.53493 3.72355 14376 ft 350 kts 35°
2026-05-05 17:31 51.55482 3.74516 13742 ft 343 kts 35°
2026-05-05 17:31 51.57456 3.76658 12838 ft 342 kts 34°
2026-05-05 17:31 51.59419 3.78776 12057 ft 338 kts 34°
2026-05-05 17:32 51.61360 3.80866 11479 ft 340 kts 34°
2026-05-05 17:32 51.63322 3.82978 10973 ft 338 kts 34°
2026-05-05 17:32 51.65266 3.85071 10637 ft 332 kts 34°
2026-05-05 17:32 51.67154 3.87106 10482 ft 320 kts 34°
2026-05-05 17:33 51.68977 3.89071 10326 ft 310 kts 34°
2026-05-05 17:33 51.70740 3.90973 10192 ft 300 kts 34°
2026-05-05 17:33 51.72449 3.92818 10063 ft 291 kts 34°
2026-05-05 17:33 51.74112 3.94616 9947 ft 286 kts 34°
2026-05-05 17:34 51.75766 3.96405 9732 ft 288 kts 34°
2026-05-05 17:34 51.77446 3.98224 9421 ft 292 kts 34°
2026-05-05 17:34 51.79137 4.00056 9101 ft 292 kts 33°
2026-05-05 17:34 51.80812 4.01872 8784 ft 289 kts 33°
2026-05-05 17:35 51.82475 4.03677 8475 ft 286 kts 33°
2026-05-05 17:35 51.84100 4.05443 8179 ft 283 kts 33°
2026-05-05 17:35 51.85750 4.07236 7877 ft 281 kts 33°
2026-05-05 17:35 51.87345 4.08971 7587 ft 278 kts 33°
2026-05-05 17:36 51.88944 4.10713 7298 ft 276 kts 33°
2026-05-05 17:36 51.90532 4.12444 7018 ft 274 kts 33°
2026-05-05 17:36 51.92095 4.14233 6794 ft 276 kts 37°
2026-05-05 17:36 51.93573 4.16149 6544 ft 266 kts 39°
2026-05-05 17:37 51.94971 4.18022 6354 ft 256 kts 39°
2026-05-05 17:37 51.95861 4.19217 6286 ft 246 kts 39°
2026-05-05 17:37 51.97591 4.21536 6101 ft 237 kts 39°
2026-05-05 17:37 51.98857 4.23225 5891 ft 234 kts 38°
2026-05-05 17:38 52.00109 4.24894 5698 ft 230 kts 38°
2026-05-05 17:38 52.00927 4.25982 5524 ft 230 kts 38°
2026-05-05 17:38 52.02162 4.27621 5266 ft 229 kts 38°
2026-05-05 17:38 52.03382 4.29241 5084 ft 225 kts 38°
2026-05-05 17:39 52.04579 4.30834 4914 ft 220 kts 38°
2026-05-05 17:39 52.05775 4.32425 4603 ft 222 kts 39°
2026-05-05 17:39 52.06967 4.34012 4391 ft 219 kts 39°
2026-05-05 17:39 52.08144 4.35578 4151 ft 217 kts 39°
2026-05-05 17:40 52.09311 4.37130 3877 ft 217 kts 39°
2026-05-05 17:40 52.10478 4.38685 3662 ft 215 kts 39°
2026-05-05 17:40 52.11629 4.40218 3457 ft 213 kts 39°
2026-05-05 17:40 52.12767 4.41738 3235 ft 210 kts 39°
2026-05-05 17:41 52.13886 4.43232 3065 ft 205 kts 39°
2026-05-05 17:41 52.14962 4.44668 2901 ft 200 kts 39°
2026-05-05 17:41 52.16028 4.46091 2747 ft 196 kts 39°
2026-05-05 17:41 52.17057 4.47468 2629 ft 186 kts 39°
2026-05-05 17:42 52.18035 4.48777 2464 ft 178 kts 39°
2026-05-05 17:42 52.18973 4.50032 2318 ft 173 kts 39°
2026-05-05 17:42 52.19893 4.51265 2183 ft 168 kts 39°
2026-05-05 17:42 52.20730 4.52560 2057 ft 165 kts 50°
2026-05-05 17:43 52.21371 4.54047 1983 ft 154 kts 54°
2026-05-05 17:43 52.21930 4.55476 1972 ft 148 kts 55°
2026-05-05 17:43 52.22478 4.56898 1984 ft 147 kts 54°
2026-05-05 17:43 52.23027 4.58333 1986 ft 151 kts 55°
2026-05-05 17:44 52.23585 4.59796 1963 ft 154 kts 55°
2026-05-05 17:44 52.24154 4.61288 1788 ft 155 kts 54°
2026-05-05 17:44 52.24712 4.62749 1584 ft 147 kts 54°
2026-05-05 17:44 52.25234 4.64116 1385 ft 139 kts 54°
2026-05-05 17:45 52.25735 4.65425 1205 ft 134 kts 53°
2026-05-05 17:45 52.26220 4.66701 988 ft 131 kts 54°
2026-05-05 17:45 52.26683 4.67947 798 ft 128 kts 54°
2026-05-05 17:45 52.27167 4.69191 676 ft 131 kts 53°
2026-05-05 17:46 52.27671 4.70475 524 ft 138 kts 56°
2026-05-05 17:46 52.28172 4.71799 307 ft 135 kts 55°
2026-05-05 17:46 52.28668 4.73099 126 ft 136 kts 56°
2026-05-05 17:46 52.29171 4.74404 1 ft 132 kts 54°
2026-05-05 17:47 52.29593 4.75496 -3 ft 92 kts 59°
2026-05-05 17:47 52.29853 4.76173 -5 ft 49 kts 58°
2026-05-05 17:47 52.30015 4.76521 -3 ft 33 kts 28°
2026-05-05 17:47 52.30137 4.76631 -2 ft 13 kts 27°
2026-05-05 17:48 52.30216 4.76695 -2 ft 12 kts 26°
2026-05-05 17:48 52.30244 4.76719 -2 ft 0 kts 26°
2026-05-05 17:48 52.30252 4.76725 -2 ft 3 kts 26°
2026-05-05 17:48 52.30289 4.76763 -2 ft 10 kts 48°
2026-05-05 17:49 52.30330 4.76864 -2 ft 11 kts 56°
2026-05-05 17:49 52.30372 4.76965 -2 ft 11 kts 57°
2026-05-05 17:49 52.30410 4.77069 -2 ft 11 kts 61°
2026-05-05 17:49 52.30454 4.77189 -2 ft 13 kts 58°
2026-05-05 17:50 52.30510 4.77330 -2 ft 16 kts 56°
2026-05-05 17:50 52.30573 4.77487 -2 ft 17 kts 45°
2026-05-05 17:50 52.30671 4.77588 -2 ft 18 kts
2026-05-05 17:50 52.30799 4.77598 -2 ft 19 kts
2026-05-05 17:51 52.30936 4.77611 -2 ft 21 kts
2026-05-05 17:51 52.31031 4.77541 -2 ft 15 kts 300°
2026-05-05 17:51 52.31070 4.77394 -2 ft 14 kts 272°
2026-05-05 17:51 52.31061 4.77319 -2 ft 4 kts 202°
2026-05-05 17:52 52.31029 4.77317 -2 ft 4 kts 182°
2026-05-05 17:52 52.31002 4.77314 -2 ft 2 kts 182°
2026-05-05 17:52 52.30999 4.77314 -2 ft 0 kts 182°